Dewpoint
-8 -10 -11 -12 -11 -12 -11 -10 -10 -10 -9 -9 -8 -7 -6 -4 -5 -5 -2 -2 -2 -1 -0 0 0 1 1 1 1 -0 -1 -2 -3 -4 -4 -4 -4 -5 -5 -5 -5 -5 -3 -2 -0 5 9 10 12 15 17 16 18 18 17 17 17 18 18 18 19 20 21 21 19 18 20 25 25 25 25 24 23 24 25 26 26 26 29 26 27 28 29 29 30
-11 -12 -12 -12 -12 -11 -10 -10 -10 -10 -9 -8 -7 -6 -6 -6 -6 -3 -2 -2 -1 -0 0 4 1 1 2 2 1 1 0 -0 -1 -2 -1 -1 -2 -3 -3 -3 -3 -3 -2 -1 0 4 5 7 8 9 11 16 16 17 17 18 16 17 17 17 16 18 18 20 20 19 19 19 20 23 24 24 23 24 24 25 25 26 25 26 26 25 28 28 29
-12 -12 -12 -11 -11 -10 -10 -10 -10 -9 -8 -7 -7 -6 -6 -6 -3 -2 -1 -1 0 1 2 3 2 3 3 2 3 3 2 2 3 2 1 0 -1 -2 -3 -4 -4 -3 -3 -2 0 5 5 6 7 8 9 12 15 17 17 18 19 19 18 17 15 16 18 18 18 19 19 19 20 20 22 23 22 22 23 25 26 26 25 24 25 25 25 27 28
-11 -11 -10 -10 -11 -11 -11 -10 -10 -10 -10 -8 -7 -6 -6 -4 -1 -0 0 1 2 2 2 2 2 2 2 2 2 2 2 3 3 2 2 1 -0 -1 -2 -2 0 2 1 3 4 5 5 5 7 8 10 11 13 17 20 19 18 19 18 17 16 17 17 18 18 19 20 20 21 21 21 22 22 23 23 23 25 25 25 25 23 22 23 24 24
-11 -10 -10 -11 -11 -10 -11 -11 -11 -10 -9 -8 -7 -6 -4 -3 -1 -1 -0 -0 1 1 2 2 2 3 3 3 3 2 3 3 4 4 4 2 0 -0 -0 0 1 2 3 4 8 6 6 6 6 7 8 9 10 12 16 19 19 18 18 18 18 17 17 17 18 18 18 18 20 22 23 23 23 23 23 23 23 23 22 23 25 24 22 22 23
-11 -10 -10 -10 -10 -11 -11 -11 -10 -9 -8 -7 -7 -5 -4 -3 -2 -1 -0 -0 0 1 2 2 3 3 3 3 3 3 3 4 5 5 4 4 3 3 3 3 3 3 4 3 4 5 6 6 6 8 9 9 8 9 13 16 20 21 20 19 18 17 17 18 19 19 19 19 19 19 22 24 24 24 23 23 23 22 22 22 21 22 22 23 22
-10 -10 -10 -10 -10 -11 -11 -10 -9 -8 -8 -7 -6 -4 -3 -3 -2 -1 0 1 1 1 2 2 2 3 3 3 4 4 5 5 6 6 6 5 6 5 4 3 3 3 3 4 8 10 9 8 8 9 10 11 12 12 12 12 16 18 20 20 21 21 21 21 22 22 22 22 21 20 20 22 24 23 24 23 24 24 24 23 22 21 21 23 25
-10 -9 -10 -11 -12 -11 -10 -10 -9 -8 -6 -5 -5 -4 -2 -2 -1 -0 1 1 1 1 2 3 3 4 4 5 5 5 6 7 7 7 8 8 7 6 5 4 3 3 3 4 6 8 8 8 8 9 9 10 11 12 12 14 15 15 17 17 18 16 15 16 19 20 20 19 19 20 23 22 22 24 25 24 22 22 22 22 22 21 22 23 24
-10 -11 -12 -12 -11 -11 -10 -9 -8 -7 -6 -5 -4 -3 -2 -2 -0 0 1 1 2 2 2 3 3 4 5 5 6 7 7 8 8 9 9 8 8 7 7 6 5 4 4 4 5 6 6 7 7 7 9 13 13 14 16 18 15 15 14 15 16 15 14 14 16 17 19 20 20 21 20 19 22 23 24 24 23 23 23 22 22 23 22 20 23
-12 -12 -13 -12 -11 -10 -9 -8 -7 -6 -5 -5 -4 -3 -1 -1 -1 -0 -0 0 1 2 2 3 4 5 6 6 7 8 8 9 11 16 16 12 10 9 8 7 7 6 5 5 5 6 6 6 7 11 11 13 13 14 16 17 18 19 14 12 13 14 14 13 14 15 16 17 19 21 19 19 19 22 23 24 24 24 22 20 22 23 19 19 21
-12 -13 -12 -11 -10 -9 -8 -7 -7 -6 -5 -4 -3 -2 -2 -2 -1 -1 -1 -0 0 1 2 3 4 5 6 7 7 8 9 10 16 19 20 20 17 14 11 9 9 8 7 6 5 5 6 7 7 10 11 11 11 14 16 16 17 18 20 21 19 15 13 12 13 14 16 18 19 20 21 20 20 22 24 24 23 23 23 23 23 20 18 19 20
-12 -12 -11 -11 -10 -9 -8 -8 -6 -5 -4 -3 -3 -3 -2 -2 -2 -2 -1 -1 0 1 2 3 4 6 6 7 8 9 10 15 19 20 21 21 21 18 16 12 10 10 9 8 7 6 6 6 7 7 7 7 7 7 11 14 16 18 19 20 20 21 20 17 15 16 17 18 18 19 20 21 22 22 23 23 23 23 23 23 22 20 19 19 18
-12 -11 -11 -10 -10 -9 -8 -7 -6 -5 -4 -4 -4 -3 -3 -3 -3 -2 -2 -1 0 1 2 3 4 5 6 7 8 10 11 16 20 21 22 23 23 21 18 17 14 11 11 10 9 8 7 7 7 8 7 11 11 9 8 7 12 13 15 18 19 20 20 21 21 20 20 20 20 20 21 22 23 24 24 24 25 24 24 23 22 22 21 20 21
-11 -11 -10 -10 -9 -8 -7 -6 -6 -5 -5 -5 -4 -4 -4 -4 -3 -2 -1 -0 1 1 1 2 4 5 7 8 10 11 12 16 20 22 23 24 24 22 20 19 18 15 13 12 11 10 9 9 9 9 10 10 10 10 8 8 8 8 9 11 12 15 18 20 20 21 21 20 21 20 22 23 23 25 26 26 24 22 23 22 23 22 21 21 21
-10 -10 -9 -9 -8 -7 -7 -6 -6 -6 -6 -6 -5 -5 -4 -4 -3 -2 -1 -0 0 1 1 3 5 6 8 9 10 11 12 19 22 23 25 25 25 23 21 20 19 18 16 15 14 13 12 11 11 11 11 12 12 12 10 9 7 7 7 7 8 9 10 11 13 14 16 18 20 22 23 24 25 26 27 24 23 25 25 24 24 23 23 20 20
-11 -10 -9 -9 -8 -8 -7 -7 -7 -7 -6 -6 -5 -5 -4 -4 -3 -2 -1 -0 0 1 3 4 5 6 7 9 11 11 13 20 22 24 26 27 26 24 22 21 20 19 18 17 16 15 14 14 13 13 13 13 15 18 17 13 9 7 6 7 7 8 9 13 15 16 16 16 19 21 23 24 26 27 28 26 26 23 24 24 24 22 22 20 20
-10 -9 -9 -9 -8 -7 -7 -7 -7 -7 -6 -6 -6 -6 -5 -4 -3 -2 -2 -0 0 1 3 4 5 6 7 9 11 12 13 18 23 24 25 25 25 24 22 21 20 20 19 19 18 17 16 16 15 14 14 14 17 19 20 20 14 10 8 7 7 8 9 11 16 18 19 21 22 23 24 25 27 28 29 30 29 27 27 26 25 24 23 23 23
-10 -9 -9 -9 -8 -7 -7 -7 -7 -7 -7 -7 -7 -6 -5 -4 -3 -2 -1 -1 0 2 3 4 5 7 9 10 12 13 15 19 22 23 23 24 24 23 23 22 21 20 20 20 19 19 19 20 19 16 16 15 19 21 22 20 17 16 13 10 8 8 9 11 13 16 21 23 24 25 26 26 27 28 29 30 30 30 28 26 26 25 24 24 23
-9 -9 -9 -9 -8 -8 -7 -7 -7 -7 -8 -7 -7 -6 -5 -4 -3 -1 -1 1 1 2 4 5 7 8 9 10 14 15 16 19 20 21 22 23 23 23 22 22 21 20 20 20 20 20 20 21 22 21 19 18 22 23 23 21 18 17 17 14 12 11 11 12 13 14 16 18 21 23 24 25 26 27 28 29 30 30 30 29 28 26 25 25 24
-9 -9 -8 -8 -8 -7 -7 -7 -7 -8 -8 -7 -7 -6 -4 -3 -2 -1 -0 1 2 2 4 6 7 8 9 11 13 15 17 17 18 19 20 22 22 21 21 20 20 21 21 21 20 21 21 20 21 23 24 24 24 24 24 24 21 19 18 17 16 15 16 16 16 16 16 17 18 19 21 22 23 25 27 28 29 30 30 30 29 28 26 25 25
-9 -9 -8 -8 -9 -8 -8 -8 -9 -8 -8 -7 -6 -5 -4 -3 -2 -1 0 2 2 4 5 6 7 8 10 13 14 16 17 15 16 18 20 20 21 20 19 20 20 20 20 21 21 21 21 22 22 23 24 25 25 26 26 26 25 22 20 19 19 19 20 19 19 21 18 18 18 19 20 22 23 24 26 27 28 29 30 30 29 29 28 26 26
-9 -9 -9 -9 -9 -9 -9 -9 -9 -9 -8 -7 -6 -5 -4 -2 -0 1 1 2 3 4 4 6 7 9 11 12 13 15 14 13 14 16 18 19 20 20 18 19 20 19 19 19 20 20 20 20 20 21 23 25 26 25 25 25 26 24 22 24 24 23 21 20 20 19 19 19 19 19 20 21 23 24 25 26 27 26 25 28 28 28 28 27 26
-9 -9 -9 -9 -9 -10 -10 -10 -10 -9 -8 -7 -6 -5 -3 -1 0 1 1 1 1 2 3 5 7 8 10 11 13 13 13 13 14 13 15 18 19 19 20 19 20 19 19 18 19 19 19 19 20 21 22 24 24 25 26 26 25 24 26 27 26 25 24 22 21 21 20 19 19 19 20 21 22 23 24 24 25 25 25 26 27 27 27 26 24
-10 -10 -10 -10 -11 -11 -11 -10 -10 -10 -9 -7 -6 -4 -2 -1 -0 1 1 1 2 3 4 5 7 8 9 10 12 11 12 12 13 13 13 16 18 19 20 20 20 18 18 18 19 18 18 19 20 22 23 25 25 24 24 25 25 26 24 23 25 27 25 23 22 21 21 20 20 20 20 21 22 23 24 25 25 25 26 26 26 26 27 25 23
-11 -11 -12 -12 -12 -12 -12 -11 -11 -10 -8 -6 -5 -3 -3 -1 -0 0 1 1 1 3 4 6 8 9 9 10 11 10 9 10 9 11 13 14 17 18 19 19 19 18 17 18 18 18 19 21 22 22 23 23 23 23 23 24 24 25 26 25 25 24 26 24 22 22 21 21 20 20 21 21 23 24 24 25 25 25 24 25 26 27 26 23 18
-13 -13 -13 -13 -13 -13 -13 -13 -12 -9 -7 -5 -3 -2 -2 -1 -0 0 1 1 2 3 5 6 8 9 9 11 9 8 7 6 8 9 11 13 15 17 18 18 18 18 18 17 18 19 20 20 21 21 22 22 22 22 21 22 23 23 24 25 24 24 25 24 23 22 21 20 21 21 21 22 23 24 25 25 25 24 25 25 25 24 24 23 21
-14 -15 -15 -15 -14 -14 -13 -12 -9 -7 -7 -6 -4 -2 -1 -1 -0 1 1 1 3 4 5 7 9 9 11 9 9 7 6 7 9 9 11 12 14 16 16 16 17 17 17 18 19 18 18 19 19 20 19 20 20 21 20 22 24 24 24 24 24 24 25 24 23 22 21 20 21 22 22 23 24 24 24 24 24 25 25 25 25 24 23 24 24
-15 -16 -16 -14 -14 -14 -12 -9 -8 -8 -7 -6 -5 -3 -3 -2 -2 -0 1 3 4 5 7 9 10 11 10 8 8 7 7 8 8 9 11 13 14 16 16 16 16 16 17 18 17 17 17 17 16 15 15 15 15 15 15 16 18 19 22 24 24 25 25 25 24 22 22 22 21 22 22 22 22 23 24 24 24 24 25 25 25 24 24 24 22
-13 -16 -16 -14 -15 -12 -11 -10 -10 -9 -8 -6 -5 -3 -2 -1 1 3 5 6 7 8 9 10 10 10 9 9 8 6 7 7 9 13 13 15 15 14 15 15 16 17 17 16 15 13 13 13 11 11 11 12 12 11 12 12 14 15 16 17 21 24 24 24 23 21 21 22 22 22 21 21 21 22 22 23 23 24 25 25 26 25 23 24 22
-15 -15 -16 -17 -16 -14 -12 -11 -11 -8 -8 -7 -5 -4 0 5 4 4 5 8 9 11 11 9 9 9 9 9 9 7 7 9 14 15 16 16 16 16 16 17 18 16 15 14 12 8 8 8 7 7 8 8 8 9 10 10 11 12 13 15 16 16 18 22 24 22 22 21 21 22 22 22 21 21 21 22 22 23 25 26 25 25 22 21 22
-14 -15 -14 -15 -14 -12 -12 -11 -11 -9 -8 -7 -7 -5 -5 -1 5 7 7 7 8 10 11 11 11 10 8 7 8 10 11 13 13 14 15 15 16 16 16 17 16 16 14 10 6 5 4 5 5 5 6 6 7 7 9 9 10 10 11 12 13 14 15 15 15 16 19 23 22 22 22 22 22 22 22 22 22 23 24 25 25 24 23 22 22
-15 -15 -15 -15 -14 -12 -13 -11 -9 -9 -9 -9 -7 -6 -5 -5 -4 1 6 7 8 9 9 10 11 11 10 9 9 8 10 12 12 13 14 15 15 14 14 16 15 14 12 10 5 4 3 3 3 3 4 4 4 5 6 7 8 9 10 10 10 12 12 12 14 15 16 18 20 24 24 24 23 23 23 22 22 23 24 24 24 23 23 22 22
-14 -15 -15 -14 -13 -12 -11 -11 -9 -10 -11 -9 -7 -7 -6 -5 -5 -4 -0 4 6 7 7 9 10 11 10 10 11 12 12 11 12 13 14 14 14 13 13 14 14 13 8 1 -0 1 2 2 1 1 1 2 2 2 4 4 6 7 8 9 10 11 11 12 13 13 14 15 17 18 21 25 25 25 24 24 23 23 23 23 23 23 22 22 21
-14 -14 -15 -14 -14 -13 -12 -11 -11 -12 -11 -9 -8 -7 -5 -4 -4 -3 -4 -4 -3 -1 2 6 8 9 8 9 10 12 12 12 12 12 13 13 13 11 9 6 10 10 5 -3 -3 -3 -2 -2 -3 -2 -1 -1 -1 -0 0 1 3 4 5 7 8 9 11 12 12 12 12 13 13 15 17 20 23 24 24 24 23 23 23 22 22 21 21 21 20
-14 -12 -11 -11 -12 -12 -12 -11 -12 -12 -11 -9 -8 -7 -6 -5 -2 -3 -4 -5 -5 -6 -6 -6 1 4 0 2 7 11 11 12 11 12 12 12 11 9 4 -5 -5 -5 -5 -5 -5 -5 -5 -6 -6 -5 -5 -4 -4 -3 -2 -1 -0 1 2 5 7 8 9 11 11 11 11 11 12 12 14 16 18 22 24 23 23 22 22 21 21 21 20 20 19
-14 -14 -15 -13 -12 -13 -12 -12 -12 -12 -11 -10 -7 -5 -3 -4 -4 -5 -5 -5 -7 -8 -9 -8 -7 -2 1 1 4 8 10 10 10 11 11 11 9 6 -7 -8 -7 -7 -7 -7 -7 -7 -7 -7 -7 -7 -6 -6 -5 -5 -4 -3 -3 -2 0 2 4 6 8 10 10 10 10 10 11 12 14 14 15 18 22 23 22 22 21 20 20 20 20 19 18
-13 -14 -14 -14 -14 -14 -13 -12 -12 -11 -5 -4 -7 -8 -7 -6 -4 -7 -8 -10 -9 -9 -11 -11 -9 -8 -5 -4 1 4 7 7 7 7 9 8 7 -5 -8 -8 -8 -9 -8 -8 -8 -8 -9 -9 -8 -9 -8 -7 -7 -7 -5 -5 -4 -3 -1 -1 1 4 7 8 8 8 8 9 10 10 10 12 14 15 17 21 21 21 21 20 19 19 19 18 14
-13 -14 -14 -14 -13 -13 -13 -13 -11 -6 -6 -7 -7 -8 -8 -9 -8 -8 -9 -10 -9 -10 -12 -13 -4 -11 -10 -7 1 -2 -5 -0 2 0 1 1 -7 -9 -9 -8 -8 -9 -9 -8 -8 -9 -9 -9 -9 -10 -10 -10 -9 -8 -7 -7 -5 -5 -5 -4 -1 2 7 6 7 6 7 8 9 10 11 12 13 14 14 17 20 20 19 18 19 18 17 15 14
-13 -12 -11 -10 -9 -9 -12 -11 -9 -9 -9 -8 -9 -8 -7 -8 -9 -10 -12 -13 -14 -14 -12 -15 -15 -12 -10 -6 -3 -5 -8 -11 -11 -11 -10 -10 -9 -10 -10 -10 -10 -9 -9 -8 -8 -9 -10 -10 -10 -10 -10 -10 -9 -8 -8 -7 -6 -6 -5 -5 -4 -1 1 4 4 5 6 6 7 8 9 10 12 13 13 14 17 19 19 18 18 18 17 15 15
-13 -13 -11 -9 -8 -8 -8 -8 -9 -10 -9 -10 -11 -10 -8 -9 -11 -11 -13 -14 -14 -13 -14 -13 -14 -14 -10 -5 -3 -7 -12 -12 -12 -12 -12 -12 -12 -11 -11 -11 -11 -11 -10 -10 -9 -9 -10 -10 -10 -11 -11 -10 -9 -8 -7 -6 -6 -6 -6 -5 -5 -4 -1 1 1 2 3 5 6 6 7 8 10 11 12 12 12 14 16 17 17 17 17 16 15
-13 -13 -11 -10 -9 -9 -9 -8 -10 -11 -11 -10 -11 -11 -12 -10 -9 -9 -12 -13 -12 -12 -12 -14 -15 -16 -8 -4 -1 -2 -13 -14 -13 -13 -13 -12 -12 -13 -12 -12 -11 -12 -11 -10 -10 -9 -10 -10 -10 -10 -10 -10 -9 -7 -7 -7 -6 -6 -7 -6 -6 -5 -4 -4 -3 -2 -1 1 3 5 5 6 8 9 10 11 15 13 11 12 13 13 13 12 11
-13 -13 -12 -10 -10 -10 -11 -10 -11 -8 -11 -9 -12 -12 -10 -10 -11 -11 -11 -10 -10 -11 -12 -14 -17 -15 -8 -4 -4 3 -10 -15 -14 -13 -14 -14 -14 -14 -12 -13 -12 -12 -11 -11 -10 -10 -11 -11 -11 -11 -11 -10 -9 -7 -6 -7 -7 -7 -7 -8 -8 -8 -7 -7 -6 -5 -4 -3 -1 2 4 5 7 8 9 13 9 10 11 11 11 11 10 9 8
-13 -12 -12 -11 -10 -11 -11 -11 -11 -12 -12 -13 -12 -8 -9 -11 -12 -11 -11 -11 -11 -11 -13 -14 -15 -14 -12 -8 -8 -8 -15 -17 -11 -14 -15 -14 -15 -14 -14 -13 -12 -12 -11 -10 -9 -9 -10 -11 -11 -11 -11 -11 -10 -8 -6 -7 -8 -8 -8 -9 -10 -10 -10 -9 -9 -9 -8 -6 -3 -1 2 4 4 5 6 6 7 7 8 8 8 8 7 7 6
-13 -12 -11 -11 -10 -10 -9 -11 -12 -11 -12 -10 -10 -10 -10 -10 -11 -12 -13 -13 -13 -12 -13 -14 -13 -14 -15 -14 -13 -14 -18 -18 -18 -17 -16 -14 -15 -14 -15 -14 -12 -12 -12 -10 -9 -9 -10 -10 -10 -10 -10 -11 -10 -9 -6 -6 -7 -8 -9 -10 -10 -10 -11 -11 -11 -11 -11 -9 -5 -3 -1 2 3 4 4 4 6 6 5 6 6 6 6 5 5
-13 -12 -12 -11 -11 -11 -11 -11 -12 -12 -10 -10 -13 -14 -11 -13 -14 -13 -12 -14 -12 -12 -13 -13 -13 -14 -14 -17 -18 -16 -19 -19 -15 -15 -16 -17 -16 -16 -15 -14 -14 -13 -13 -11 -10 -10 -10 -10 -10 -10 -10 -9 -9 -8 -7 -6 -7 -7 -8 -9 -10 -11 -11 -11 -11 -11 -10 -8 -6 -5 -2 0 2 3 4 4 4 4 4 4 4 2 3 3 3
-13 -12 -12 -12 -12 -11 -11 -13 -10 -13 -14 -15 -16 -18 -16 -17 -17 -14 -13 -13 -12 -13 -14 -14 -15 -14 -14 -17 -17 -15 -18 -18 -19 -17 -16 -18 -18 -18 -18 -16 -14 -14 -13 -13 -11 -11 -10 -10 -10 -10 -10 -10 -9 -9 -8 -7 -8 -7 -8 -8 -9 -10 -10 -9 -9 -9 -9 -9 -8 -6 -3 -1 0 0 -0 3 3 3 3 3 3 3 3 2 2
-13 -12 -12 -11 -12 -12 -12 -12 -13 -14 -16 -16 -15 -16 -17 -17 -17 -13 -11 -12 -14 -13 -14 -16 -16 -17 -17 -17 -17 -18 -17 -17 -18 -18 -19 -19 -19 -20 -19 -18 -16 -16 -15 -13 -12 -11 -11 -10 -10 -10 -10 -10 -10 -10 -9 -9 -9 -8 -8 -8 -9 -10 -10 -9 -8 -8 -9 -9 -7 -5 -4 -2 -1 -0 0 1 1 2 1 2 1 1 1 0 0
-13 -12 -12 -12 -12 -12 -12 -12 -12 -12 -15 -15 -15 -15 -14 -15 -15 -15 -15 -14 -15 -15 -16 -17 -19 -19 -16 -18 -17 -17 -17 -18 -18 -17 -19 -20 -21 -20 -20 -19 -17 -17 -16 -15 -15 -13 -12 -11 -11 -10 -10 -10 -10 -10 -10 -10 -9 -9 -9 -9 -9 -9 -9 -9 -8 -7 -7 -8 -7 -6 -5 -5 -4 -4 -3 -1 -1 0 0 -0 -1 -1 -1 -1 -1
-12 -12 -12 -12 -12 -13 -13 -13 -13 -14 -16 -17 -16 -17 -15 -17 -16 -17 -16 -17 -17 -16 -19 -19 -21 -19 -19 -18 -17 -17 -17 -16 -21 -21 -22 -22 -21 -21 -20 -19 -17 -18 -17 -17 -16 -15 -14 -13 -11 -11 -11 -10 -10 -10 -10 -10 -9 -9 -9 -9 -9 -9 -9 -9 -9 -8 -7 -7 -7 -7 -7 -7 -7 -8 -7 -6 -5 -4 -3 -3 -3 -3 -3 -2 -2
-13 -12 -12 -12 -13 -13 -13 -13 -14 -15 -16 -17 -18 -19 -18 -17 -18 -18 -19 -18 -18 -18 -21 -19 -19 -21 -22 -20 -18 -18 -18 -19 -21 -21 -22 -22 -22 -21 -20 -20 -20 -19 -19 -19 -17 -16 -16 -15 -13 -12 -11 -11 -11 -10 -10 -9 -9 -8 -9 -9 -9 -9 -9 -9 -9 -8 -7 -7 -8 -8 -8 -8 -8 -8 -8 -8 -7 -7 -7 -7 -7 -6 -5 -4 -4
-12 -12 -12 -13 -13 -13 -14 -14 -15 -16 -17 -17 -18 -19 -18 -20 -20 -20 -19 -21 -21 -22 -19 -23 -25 -22 -21 -23 -17 -19 -20 -21 -21 -22 -22 -23 -23 -21 -21 -21 -19 -20 -20 -19 -18 -17 -17 -16 -14 -13 -12 -11 -11 -10 -10 -9 -8 -8 -8 -8 -9 -9 -9 -9 -9 -9 -8 -7 -8 -9 -9 -10 -10 -10 -10 -10 -9 -8 -9 -9 -9 -8 -8 -8 -8